Regional Weather Roundup
Issued by NWS Kansas City/Pleasant Hill, MO

Home | Current Version | Previous Version | Graphics & Text | Print | Product List | Glossary Off
Versions: 1 2 3 4 5 6 7 8 9 10 11 12 13 14 15 16 17 18 19 20 21 22 23 24 25 26 27

000
ASUS43 KEAX 032310
RWREAX

WEATHER ROUNDUP FOR EASTERN KANSAS AND NORTHWEST MISSOURI
NATIONAL WEATHER SERVICE KANSAS CITY/PLEASANT HILL MO
500 PM CST SAT DEC 03 2016

KSZ040-057-103>105-MOZ028-029-037-043-040000-
...KANSAS CITY METROPOLITAN AREA...

CITY           SKY/WX    TMP DP  RH WIND       PRES   REMARKS
K.C. INTL      CLOUDY    45  29  53 E7        30.14F
K.C. DOWNTOWN  CLOUDY    48  30  49 E6        30.15S
LEES SUMMIT    CLOUDY    47  31  53 SE6       30.15F
OLATHE - IXD   CLOUDY    47  32  56 SE7       30.14F
OLATHE - OJC   CLOUDY    46  31  55 SE7       30.14F
LAWRENCE       CLOUDY    45  34  65 E5        30.13F

$$

MOZ001>008-011>017-020>025-030>033-038>040-044>046-053-054-040000-
...NORTHERN AND CENTRAL MISSOURI...

CITY           SKY/WX    TMP DP  RH WIND       PRES   REMARKS
ST. JOSEPH     CLOUDY    44  30  57 E5        30.16F
MOSBY          CLOUDY    45  30  57 E6        30.16F
WARRENSBURG    CLOUDY    46  30  53 E7        30.16F
WHITEMAN AFB   CLOUDY    47  31  54 SE7       30.16F
CLINTON        CLOUDY    48  32  53 E6        30.17F
SEDALIA        CLOUDY    46  32  58 SE13      30.19F
WARSAW         NOT AVBL
CHILLICOTHE      N/A     44  32  62 E5        30.19F
KIRKSVILLE     MOCLDY    41  33  73 SE7       30.23R

$$

MOZ041-047>049-056>058-063>065-088>090-097-040000-
...EASTERN AND SOUTHERN MISSOURI...

CITY           SKY/WX    TMP DP  RH WIND       PRES   REMARKS
ST. LOUIS INTL CLOUDY    43  30  60 SE6       30.27F
SPIRIT OF STL  CLOUDY    41  32  70 E5        30.27F
COLUMBIA       CLOUDY    43  31  62 SE9       30.21F
JEFFERSON CITY CLOUDY    44  31  60 SE7       30.22F
ROLLA          CLOUDY    42  31  64 E7        30.21S
OSAGE BEACH    CLOUDY    46  30  53 SE7       30.21F
SPRINGFIELD    LGT RAIN  43  35  73 SE14      30.17S
BRANSON        LGT RAIN  39  37  93 E9        30.18F FOG     WCI  33
JOPLIN         LGT RAIN  46  39  76 SE8       30.15F
WEST PLAINS    LGT RAIN  40  37  89 SE3       30.23S

$$

IAZ060-094-KSZ022-034>040-054-083-096-NEZ052-066-093-040000-
...KANSAS...SOUTHEAST NEBRASKA AND IOWA...

CITY           SKY/WX    TMP DP  RH WIND       PRES   REMARKS
TOPEKA         CLOUDY    47  31  53 E3        30.14S
MANHATTAN      LGT RAIN  39  36  89 N3        30.12F FOG
EMPORIA        CLOUDY    44  36  73 SE3       30.11F
CHANUTE        LGT RAIN  48  39  71 SE3       30.13S
WICHITA        DRIZZLE   43  39  86 SE3       30.09F
OMAHA          LGT SNOW  33  29  85 SE6       30.17F VSB 3/4 WCI  28
LINCOLN        LGT SNOW  33  32  96 SE5       30.14F VSB 1   WCI  29
FALLS CITY     CLOUDY    39  33  79 E7        30.13F WCI  34
LAMONI         CLOUDY    41  33  73 E5        30.17F
DES MOINES     LGT RAIN  40  32  73 E5        30.22F

$$





USA.gov is the U.S. government's official web portal to all federal, state and local government web resources and services.